M I D A S
Marine Information and Data Acquisition System
Tripno 1287 of the Zeeleeuw from 2007-06-15 06:48:23 to 2007-06-15 14:46:10
Back to CruiseResearch ActivitiesStationsMapUnderway DataData graphs

EquipmentUnitsComment
TimeDGPSUTC
LatitudeDGPSDM.mWGS84
LongitudeDGPSDM.mWGS84
TemperatureSBE03/SBE38deg celciusITS90
ConductivitySBE21S/mITS90
SalinitySBE21 Practical Salinity Units
ChlorophylAChelsea fluorimeterg/lCalibrated in Aceton
Missing or incorrect values are displayed as -999
Sea surface data collected by the RV Zeeleeuw from 2007-06-15 06:51:28 to 2007-06-15 14:56:51
                                                                                    Next 1000 lines
Time Latitude Longitude Temperature Conductivity Salinity ChlorophylA
2007-06-15 06:51:38 51°13.599 2°56.091 -999 -999 -999 -999
2007-06-15 06:51:43 51°13.599 2°56.089 -999 -999 -999 -999
2007-06-15 06:51:48 51°13.6 2°56.086 -999 -999 -999 -999
2007-06-15 06:51:53 51°13.601 2°56.083 -999 -999 -999 -999
2007-06-15 06:51:58 51°13.602 2°56.079 -999 -999 -999 -999
2007-06-15 06:52:03 51°13.603 2°56.075 -999 -999 -999 -999
2007-06-15 06:52:08 51°13.604 2°56.07 -999 -999 -999 -999
2007-06-15 06:52:13 51°13.606 2°56.064 -999 -999 -999 -999
2007-06-15 06:52:18 51°13.607 2°56.058 -999 -999 -999 -999
2007-06-15 06:52:23 51°13.608 2°56.051 -999 -999 -999 -999
2007-06-15 06:52:28 51°13.61 2°56.043 -999 -999 -999 -999
2007-06-15 06:52:33 51°13.612 2°56.035 -999 -999 -999 -999
2007-06-15 06:52:39 51°13.615 2°56.025 -999 -999 -999 -999
2007-06-15 06:52:43 51°13.616 2°56.018 -999 -999 -999 -999
2007-06-15 06:52:48 51°13.619 2°56.009 -999 -999 -999 -999
2007-06-15 06:52:53 51°13.622 2°56 -999 -999 -999 -999
2007-06-15 06:52:58 51°13.625 2°55.99 -999 -999 -999 -999
2007-06-15 06:53:04 51°13.629 2°55.979 -999 -999 -999 -999
2007-06-15 06:53:08 51°13.632 2°55.971 -999 -999 -999 -999
2007-06-15 06:53:13 51°13.636 2°55.961 -999 -999 -999 -999
2007-06-15 06:53:18 51°13.64 2°55.95 -999 -999 -999 -999
2007-06-15 06:53:23 51°13.644 2°55.94 -999 -999 -999 -999
2007-06-15 06:53:28 51°13.648 2°55.93 -999 -999 -999 -999
2007-06-15 06:53:33 51°13.653 2°55.92 -999 -999 -999 -999
2007-06-15 06:53:38 51°13.656 2°55.91 -999 -999 -999 -999
2007-06-15 06:53:43 51°13.66 2°55.901 -999 -999 -999 -999
2007-06-15 06:53:48 51°13.663 2°55.892 -999 -999 -999 -999
2007-06-15 06:53:53 51°13.666 2°55.883 -999 -999 -999 -999
2007-06-15 06:53:58 51°13.669 2°55.874 -999 -999 -999 -999
2007-06-15 06:54:03 51°13.672 2°55.866 -999 -999 -999 -999
2007-06-15 06:54:08 51°13.675 2°55.858 -999 -999 -999 -999
2007-06-15 06:54:13 51°13.677 2°55.851 -999 -999 -999 -999
2007-06-15 06:54:18 51°13.679 2°55.843 -999 -999 -999 -999
2007-06-15 06:54:23 51°13.681 2°55.836 -999 -999 -999 -999
2007-06-15 06:54:28 51°13.683 2°55.829 -999 -999 -999 -999
2007-06-15 06:54:33 51°13.685 2°55.822 -999 -999 -999 -999
2007-06-15 06:54:38 51°13.686 2°55.816 -999 -999 -999 -999
2007-06-15 06:54:43 51°13.687 2°55.81 -999 -999 -999 -999
2007-06-15 06:54:48 51°13.689 2°55.804 -999 -999 -999 -999
2007-06-15 06:54:53 51°13.69 2°55.798 -999 -999 -999 -999
2007-06-15 06:54:58 51°13.691 2°55.792 -999 -999 -999 -999
2007-06-15 06:55:03 51°13.691 2°55.787 -999 -999 -999 -999
2007-06-15 06:55:08 51°13.692 2°55.781 -999 -999 -999 -999
2007-06-15 06:55:13 51°13.693 2°55.776 -999 -999 -999 -999
2007-06-15 06:55:18 51°13.694 2°55.772 -999 -999 -999 -999
2007-06-15 06:55:23 51°13.694 2°55.767 -999 -999 -999 -999
2007-06-15 06:55:28 51°13.695 2°55.763 -999 -999 -999 -999
2007-06-15 06:55:33 51°13.695 2°55.759 -999 -999 -999 -999
2007-06-15 06:55:38 51°13.695 2°55.755 -999 -999 -999 -999
2007-06-15 06:55:43 51°13.695 2°55.751 -999 -999 -999 -999
2007-06-15 06:55:48 51°13.696 2°55.747 -999 -999 -999 -999
2007-06-15 06:55:53 51°13.696 2°55.743 -999 -999 -999 -999
2007-06-15 06:55:58 51°13.696 2°55.74 -999 -999 -999 -999
2007-06-15 06:56:03 51°13.696 2°55.736 -999 -999 -999 -999
2007-06-15 06:56:08 51°13.696 2°55.732 -999 -999 -999 -999
2007-06-15 06:56:13 51°13.696 2°55.729 -999 -999 -999 -999
2007-06-15 06:56:18 51°13.696 2°55.726 -999 -999 -999 -999
2007-06-15 06:56:23 51°13.696 2°55.723 -999 -999 -999 -999
2007-06-15 06:56:28 51°13.696 2°55.721 -999 -999 -999 -999
2007-06-15 06:56:33 51°13.696 2°55.718 -999 -999 -999 -999
2007-06-15 06:56:38 51°13.696 2°55.716 -999 -999 -999 -999
2007-06-15 06:56:43 51°13.696 2°55.715 -999 -999 -999 -999
2007-06-15 06:56:48 51°13.696 2°55.714 -999 -999 -999 -999
2007-06-15 06:56:53 51°13.696 2°55.713 -999 -999 -999 -999
2007-06-15 06:56:58 51°13.696 2°55.713 -999 -999 -999 -999
2007-06-15 06:57:03 51°13.696 2°55.712 -999 -999 -999 -999
2007-06-15 06:57:08 51°13.697 2°55.713 -999 -999 -999 -999
2007-06-15 06:57:13 51°13.697 2°55.713 -999 -999 -999 -999
2007-06-15 06:57:18 51°13.698 2°55.714 -999 -999 -999 -999
2007-06-15 06:57:23 51°13.7 2°55.715 -999 -999 -999 -999
2007-06-15 06:57:28 51°13.701 2°55.716 -999 -999 -999 -999
2007-06-15 06:57:33 51°13.703 2°55.717 -999 -999 -999 -999
2007-06-15 06:57:38 51°13.705 2°55.718 -999 -999 -999 -999
2007-06-15 06:57:43 51°13.707 2°55.719 -999 -999 -999 -999
2007-06-15 06:57:48 51°13.71 2°55.72 -999 -999 -999 -999
2007-06-15 06:57:53 51°13.714 2°55.721 -999 -999 -999 -999
2007-06-15 06:57:58 51°13.719 2°55.721 -999 -999 -999 -999
2007-06-15 06:58:03 51°13.724 2°55.719 -999 -999 -999 -999
2007-06-15 06:58:08 51°13.729 2°55.717 -999 -999 -999 -999
2007-06-15 06:58:13 51°13.734 2°55.715 -999 -999 -999 -999
2007-06-15 06:58:18 51°13.739 2°55.711 -999 -999 -999 -999
2007-06-15 06:58:23 51°13.745 2°55.707 -999 -999 -999 -999
2007-06-15 06:58:28 51°13.75 2°55.702 -999 -999 -999 -999
2007-06-15 06:58:33 51°13.756 2°55.697 -999 -999 -999 -999
2007-06-15 06:58:38 51°13.762 2°55.692 -999 -999 -999 -999
2007-06-15 06:58:43 51°13.769 2°55.686 -999 -999 -999 -999
2007-06-15 06:58:48 51°13.777 2°55.68 -999 -999 -999 -999
2007-06-15 06:58:53 51°13.785 2°55.673 -999 -999 -999 -999
2007-06-15 06:58:58 51°13.793 2°55.666 -999 -999 -999 -999
2007-06-15 06:59:03 51°13.801 2°55.659 -999 -999 -999 -999
2007-06-15 06:59:08 51°13.811 2°55.652 -999 -999 -999 -999
2007-06-15 06:59:13 51°13.821 2°55.645 -999 -999 -999 -999
2007-06-15 06:59:18 51°13.831 2°55.638 -999 -999 -999 -999
2007-06-15 06:59:23 51°13.841 2°55.63 -999 -999 -999 -999
2007-06-15 06:59:28 51°13.852 2°55.621 -999 -999 -999 -999
2007-06-15 06:59:33 51°13.863 2°55.613 -999 -999 -999 -999
2007-06-15 06:59:38 51°13.874 2°55.604 -999 -999 -999 -999
2007-06-15 06:59:43 51°13.885 2°55.596 -999 -999 -999 -999
2007-06-15 06:59:48 51°13.897 2°55.587 -999 -999 -999 -999
2007-06-15 06:59:53 51°13.908 2°55.578 -999 -999 -999 -999
2007-06-15 06:59:58 51°13.92 2°55.569 -999 -999 -999 -999
2007-06-15 07:00:03 51°13.932 2°55.56 -999 -999 -999 -999
2007-06-15 07:00:08 51°13.944 2°55.552 -999 -999 -999 -999
2007-06-15 07:00:13 51°13.956 2°55.543 -999 -999 -999 -999
2007-06-15 07:00:18 51°13.968 2°55.534 -999 -999 -999 -999
2007-06-15 07:00:23 51°13.98 2°55.526 -999 -999 -999 -999
2007-06-15 07:00:28 51°13.992 2°55.518 -999 -999 -999 -999
2007-06-15 07:00:33 51°14.004 2°55.509 -999 -999 -999 -999
2007-06-15 07:00:38 51°14.017 2°55.5 -999 -999 -999 -999
2007-06-15 07:00:43 51°14.029 2°55.492 -999 -999 -999 -999
2007-06-15 07:00:48 51°14.042 2°55.484 -999 -999 -999 -999
2007-06-15 07:00:53 51°14.054 2°55.475 -999 -999 -999 -999
2007-06-15 07:00:58 51°14.067 2°55.466 -999 -999 -999 -999
2007-06-15 07:01:03 51°14.079 2°55.457 -999 -999 -999 -999
2007-06-15 07:01:08 51°14.091 2°55.447 -999 -999 -999 -999
2007-06-15 07:01:13 51°14.104 2°55.437 -999 -999 -999 -999
2007-06-15 07:01:18 51°14.116 2°55.428 -999 -999 -999 -999
2007-06-15 07:01:23 51°14.128 2°55.418 -999 -999 -999 -999
2007-06-15 07:01:28 51°14.14 2°55.408 -999 -999 -999 -999
2007-06-15 07:01:33 51°14.152 2°55.397 -999 -999 -999 -999
2007-06-15 07:01:39 51°14.167 2°55.384 -999 -999 -999 -999
2007-06-15 07:01:43 51°14.176 2°55.375 -999 -999 -999 -999
2007-06-15 07:01:48 51°14.187 2°55.363 -999 -999 -999 -999
2007-06-15 07:01:53 51°14.198 2°55.351 -999 -999 -999 -999
2007-06-15 07:01:58 51°14.209 2°55.338 -999 -999 -999 -999
2007-06-15 07:02:03 51°14.22 2°55.325 -999 -999 -999 -999
2007-06-15 07:02:08 51°14.231 2°55.311 -999 -999 -999 -999
2007-06-15 07:02:13 51°14.241 2°55.297 -999 -999 -999 -999
2007-06-15 07:02:18 51°14.251 2°55.282 -999 -999 -999 -999
2007-06-15 07:02:23 51°14.261 2°55.266 -999 -999 -999 -999
2007-06-15 07:02:28 51°14.271 2°55.249 -999 -999 -999 -999
2007-06-15 07:02:33 51°14.282 2°55.232 -999 -999 -999 -999
2007-06-15 07:02:38 51°14.292 2°55.214 -999 -999 -999 -999
2007-06-15 07:02:43 51°14.303 2°55.196 -999 -999 -999 -999
2007-06-15 07:02:48 51°14.314 2°55.179 -999 -999 -999 -999
2007-06-15 07:02:53 51°14.325 2°55.16 -999 -999 -999 -999
2007-06-15 07:02:58 51°14.335 2°55.142 -999 -999 -999 -999
2007-06-15 07:03:03 51°14.345 2°55.122 -999 -999 -999 -999
2007-06-15 07:03:08 51°14.354 2°55.101 -999 -999 -999 -999
2007-06-15 07:03:13 51°14.363 2°55.079 -999 -999 -999 -999
2007-06-15 07:03:18 51°14.372 2°55.057 -999 -999 -999 -999
2007-06-15 07:03:23 51°14.382 2°55.037 -999 -999 -999 -999
2007-06-15 07:03:28 51°14.394 2°55.017 -999 -999 -999 -999
2007-06-15 07:03:33 51°14.406 2°54.998 -999 -999 -999 -999
2007-06-15 07:03:38 51°14.418 2°54.979 -999 -999 -999 -999
2007-06-15 07:03:43 51°14.431 2°54.96 -999 -999 -999 -999
2007-06-15 07:03:48 51°14.444 2°54.941 -999 -999 -999 -999
2007-06-15 07:03:53 51°14.457 2°54.922 -999 -999 -999 -999
2007-06-15 07:03:58 51°14.471 2°54.904 -999 -999 -999 -999
2007-06-15 07:04:03 51°14.484 2°54.884 -999 -999 -999 -999
2007-06-15 07:04:08 51°14.496 2°54.864 -999 -999 -999 -999
2007-06-15 07:04:13 51°14.51 2°54.845 -999 -999 -999 -999
2007-06-15 07:04:18 51°14.523 2°54.827 -999 -999 -999 -999
2007-06-15 07:04:23 51°14.537 2°54.81 -999 -999 -999 -999
2007-06-15 07:04:28 51°14.551 2°54.793 -999 -999 -999 -999
2007-06-15 07:04:33 51°14.565 2°54.777 -999 -999 -999 -999
2007-06-15 07:04:38 51°14.579 2°54.76 -999 -999 -999 -999
2007-06-15 07:04:43 51°14.593 2°54.744 -999 -999 -999 -999
2007-06-15 07:04:48 51°14.607 2°54.727 -999 -999 -999 -999
2007-06-15 07:04:53 51°14.621 2°54.709 -999 -999 -999 -999
2007-06-15 07:04:58 51°14.635 2°54.691 -999 -999 -999 -999
2007-06-15 07:05:03 51°14.648 2°54.672 -999 -999 -999 -999
2007-06-15 07:05:08 51°14.662 2°54.653 -999 -999 -999 -999
2007-06-15 07:05:13 51°14.675 2°54.633 -999 -999 -999 -999
2007-06-15 07:05:18 51°14.689 2°54.614 -999 -999 -999 -999
2007-06-15 07:05:23 51°14.702 2°54.596 -999 -999 -999 -999
2007-06-15 07:05:28 51°14.716 2°54.577 -999 -999 -999 -999
2007-06-15 07:05:33 51°14.73 2°54.56 -999 -999 -999 -999
2007-06-15 07:05:38 51°14.745 2°54.543 -999 -999 -999 -999
2007-06-15 07:05:43 51°14.759 2°54.526 -999 -999 -999 -999
2007-06-15 07:05:48 51°14.774 2°54.51 -999 -999 -999 -999
2007-06-15 07:05:53 51°14.788 2°54.495 -999 -999 -999 -999
2007-06-15 07:05:58 51°14.803 2°54.48 -999 -999 -999 -999
2007-06-15 07:06:03 51°14.819 2°54.465 -999 -999 -999 -999
2007-06-15 07:06:08 51°14.834 2°54.451 -999 -999 -999 -999
2007-06-15 07:06:13 51°14.849 2°54.437 -999 -999 -999 -999
2007-06-15 07:06:18 51°14.864 2°54.423 -999 -999 -999 -999
2007-06-15 07:06:23 51°14.879 2°54.409 -999 -999 -999 -999
2007-06-15 07:06:28 51°14.895 2°54.395 -999 -999 -999 -999
2007-06-15 07:06:33 51°14.91 2°54.38 -999 -999 -999 -999
2007-06-15 07:06:38 51°14.924 2°54.365 -999 -999 -999 -999
2007-06-15 07:06:43 51°14.939 2°54.35 -999 -999 -999 -999
2007-06-15 07:06:48 51°14.953 2°54.335 -999 -999 -999 -999
2007-06-15 07:06:53 51°14.967 2°54.32 -999 -999 -999 -999
2007-06-15 07:06:58 51°14.981 2°54.304 -999 -999 -999 -999
2007-06-15 07:07:03 51°14.995 2°54.288 -999 -999 -999 -999
2007-06-15 07:07:08 51°15.009 2°54.272 -999 -999 -999 -999
2007-06-15 07:07:13 51°15.023 2°54.254 -999 -999 -999 -999
2007-06-15 07:07:18 51°15.036 2°54.238 -999 -999 -999 -999
2007-06-15 07:07:23 51°15.049 2°54.221 -999 -999 -999 -999
2007-06-15 07:07:28 51°15.063 2°54.204 -999 -999 -999 -999
2007-06-15 07:07:33 51°15.077 2°54.188 -999 -999 -999 -999
2007-06-15 07:07:38 51°15.091 2°54.173 -999 -999 -999 -999
2007-06-15 07:07:43 51°15.106 2°54.158 -999 -999 -999 -999
2007-06-15 07:07:48 51°15.122 2°54.144 -999 -999 -999 -999
2007-06-15 07:07:53 51°15.137 2°54.132 -999 -999 -999 -999
2007-06-15 07:07:58 51°15.152 2°54.12 -999 -999 -999 -999
2007-06-15 07:08:03 51°15.168 2°54.108 -999 -999 -999 -999
2007-06-15 07:08:08 51°15.184 2°54.098 -999 -999 -999 -999
2007-06-15 07:08:13 51°15.199 2°54.086 -999 -999 -999 -999
2007-06-15 07:08:18 51°15.215 2°54.075 -999 -999 -999 -999
2007-06-15 07:08:23 51°15.23 2°54.063 -999 -999 -999 -999
2007-06-15 07:08:28 51°15.246 2°54.05 -999 -999 -999 -999
2007-06-15 07:08:33 51°15.261 2°54.037 -999 -999 -999 -999
2007-06-15 07:08:38 51°15.276 2°54.022 -999 -999 -999 -999
2007-06-15 07:08:43 51°15.292 2°54.009 -999 -999 -999 -999
2007-06-15 07:08:48 51°15.307 2°53.994 -999 -999 -999 -999
2007-06-15 07:08:53 51°15.322 2°53.98 -999 -999 -999 -999
2007-06-15 07:08:58 51°15.337 2°53.966 -999 -999 -999 -999
2007-06-15 07:09:03 51°15.353 2°53.952 -999 -999 -999 -999
2007-06-15 07:09:08 51°15.368 2°53.938 -999 -999 -999 -999
2007-06-15 07:09:13 51°15.383 2°53.924 -999 -999 -999 -999
2007-06-15 07:09:18 51°15.399 2°53.91 -999 -999 -999 -999
2007-06-15 07:09:23 51°15.414 2°53.895 -999 -999 -999 -999
2007-06-15 07:09:28 51°15.429 2°53.882 -999 -999 -999 -999
2007-06-15 07:09:33 51°15.445 2°53.868 -999 -999 -999 -999
2007-06-15 07:09:38 51°15.46 2°53.854 -999 -999 -999 -999
2007-06-15 07:09:43 51°15.475 2°53.839 -999 -999 -999 -999
2007-06-15 07:09:48 51°15.491 2°53.826 -999 -999 -999 -999
2007-06-15 07:09:53 51°15.506 2°53.811 -999 -999 -999 -999
2007-06-15 07:09:58 51°15.522 2°53.798 -999 -999 -999 -999
2007-06-15 07:10:03 51°15.537 2°53.783 -999 -999 -999 -999
2007-06-15 07:10:08 51°15.552 2°53.769 -999 -999 -999 -999
2007-06-15 07:10:13 51°15.567 2°53.754 -999 -999 -999 -999
2007-06-15 07:10:18 51°15.583 2°53.741 -999 -999 -999 -999
2007-06-15 07:10:23 51°15.598 2°53.726 -999 -999 -999 -999
2007-06-15 07:10:28 51°15.613 2°53.712 -999 -999 -999 -999
2007-06-15 07:10:33 51°15.629 2°53.699 -999 -999 -999 -999
2007-06-15 07:10:38 51°15.644 2°53.684 -999 -999 -999 -999
2007-06-15 07:10:43 51°15.66 2°53.67 -999 -999 -999 -999
2007-06-15 07:10:48 51°15.675 2°53.656 -999 -999 -999 -999
2007-06-15 07:10:53 51°15.69 2°53.642 -999 -999 -999 -999
2007-06-15 07:10:58 51°15.705 2°53.629 -999 -999 -999 -999
2007-06-15 07:11:03 51°15.72 2°53.615 -999 -999 -999 -999
2007-06-15 07:11:08 51°15.736 2°53.601 -999 -999 -999 -999
2007-06-15 07:11:13 51°15.751 2°53.587 -999 -999 -999 -999
2007-06-15 07:11:18 51°15.766 2°53.573 -999 -999 -999 -999
2007-06-15 07:11:23 51°15.781 2°53.559 -999 -999 -999 -999
2007-06-15 07:11:28 51°15.797 2°53.546 -999 -999 -999 -999
2007-06-15 07:11:33 51°15.812 2°53.533 -999 -999 -999 -999
2007-06-15 07:11:38 51°15.828 2°53.52 -999 -999 -999 -999
2007-06-15 07:11:43 51°15.843 2°53.506 -999 -999 -999 -999
2007-06-15 07:11:48 51°15.858 2°53.492 -999 -999 -999 -999
2007-06-15 07:11:53 51°15.873 2°53.478 -999 -999 -999 -999
2007-06-15 07:11:58 51°15.888 2°53.463 -999 -999 -999 -999
2007-06-15 07:12:03 51°15.903 2°53.45 -999 -999 -999 -999
2007-06-15 07:12:08 51°15.918 2°53.435 -999 -999 -999 -999
2007-06-15 07:12:13 51°15.933 2°53.421 -999 -999 -999 -999
2007-06-15 07:12:18 51°15.948 2°53.408 -999 -999 -999 -999
2007-06-15 07:12:23 51°15.963 2°53.394 -999 -999 -999 -999
2007-06-15 07:12:28 51°15.978 2°53.381 -999 -999 -999 -999
2007-06-15 07:12:33 51°15.993 2°53.367 -999 -999 -999 -999
2007-06-15 07:12:38 51°16.008 2°53.353 -999 -999 -999 -999
2007-06-15 07:12:43 51°16.023 2°53.339 -999 -999 -999 -999
2007-06-15 07:12:48 51°16.038 2°53.325 -999 -999 -999 -999
2007-06-15 07:12:53 51°16.052 2°53.31 -999 -999 -999 -999
2007-06-15 07:12:58 51°16.067 2°53.297 -999 -999 -999 -999
2007-06-15 07:13:03 51°16.083 2°53.283 -999 -999 -999 -999
2007-06-15 07:13:08 51°16.098 2°53.27 -999 -999 -999 -999
2007-06-15 07:13:13 51°16.113 2°53.257 -999 -999 -999 -999
2007-06-15 07:13:18 51°16.128 2°53.244 -999 -999 -999 -999
2007-06-15 07:13:23 51°16.143 2°53.23 -999 -999 -999 -999
2007-06-15 07:13:28 51°16.158 2°53.217 -999 -999 -999 -999
2007-06-15 07:13:33 51°16.173 2°53.204 -999 -999 -999 -999
2007-06-15 07:13:38 51°16.189 2°53.192 -999 -999 -999 -999
2007-06-15 07:13:43 51°16.204 2°53.179 -999 -999 -999 -999
2007-06-15 07:13:48 51°16.219 2°53.166 -999 -999 -999 -999
2007-06-15 07:13:53 51°16.235 2°53.154 -999 -999 -999 -999
2007-06-15 07:13:58 51°16.25 2°53.141 -999 -999 -999 -999
2007-06-15 07:14:03 51°16.265 2°53.129 -999 -999 -999 -999
2007-06-15 07:14:08 51°16.281 2°53.117 -999 -999 -999 -999
2007-06-15 07:14:13 51°16.297 2°53.105 -999 -999 -999 -999
2007-06-15 07:14:18 51°16.313 2°53.094 -999 -999 -999 -999
2007-06-15 07:14:23 51°16.328 2°53.082 -999 -999 -999 -999
2007-06-15 07:14:28 51°16.344 2°53.071 -999 -999 -999 -999
2007-06-15 07:14:33 51°16.359 2°53.059 -999 -999 -999 -999
2007-06-15 07:14:38 51°16.375 2°53.047 -999 -999 -999 -999
2007-06-15 07:14:43 51°16.391 2°53.035 -999 -999 -999 -999
2007-06-15 07:14:48 51°16.406 2°53.024 -999 -999 -999 -999
2007-06-15 07:14:53 51°16.422 2°53.012 -999 -999 -999 -999
2007-06-15 07:14:58 51°16.439 2°53.001 -999 -999 -999 -999
2007-06-15 07:15:03 51°16.454 2°52.99 -999 -999 -999 -999
2007-06-15 07:15:08 51°16.47 2°52.978 -999 -999 -999 -999
2007-06-15 07:15:13 51°16.486 2°52.967 -999 -999 -999 -999
2007-06-15 07:15:18 51°16.502 2°52.955 -999 -999 -999 -999
2007-06-15 07:15:23 51°16.517 2°52.944 -999 -999 -999 -999
2007-06-15 07:15:28 51°16.533 2°52.933 -999 -999 -999 -999
2007-06-15 07:15:33 51°16.549 2°52.922 -999 -999 -999 -999
2007-06-15 07:15:38 51°16.565 2°52.91 -999 -999 -999 -999
2007-06-15 07:15:43 51°16.58 2°52.899 -999 -999 -999 -999
2007-06-15 07:15:48 51°16.596 2°52.888 -999 -999 -999 -999
2007-06-15 07:15:53 51°16.612 2°52.876 -999 -999 -999 -999
2007-06-15 07:15:58 51°16.627 2°52.865 -999 -999 -999 -999
2007-06-15 07:16:03 51°16.643 2°52.854 -999 -999 -999 -999
2007-06-15 07:16:08 51°16.659 2°52.844 -999 -999 -999 -999
2007-06-15 07:16:13 51°16.674 2°52.833 -999 -999 -999 -999
2007-06-15 07:16:18 51°16.69 2°52.824 -999 -999 -999 -999
2007-06-15 07:16:23 51°16.706 2°52.815 -999 -999 -999 -999
2007-06-15 07:16:28 51°16.722 2°52.806 -999 -999 -999 -999
2007-06-15 07:16:33 51°16.738 2°52.797 -999 -999 -999 -999
2007-06-15 07:16:38 51°16.754 2°52.788 -999 -999 -999 -999
2007-06-15 07:16:43 51°16.77 2°52.779 -999 -999 -999 -999
2007-06-15 07:16:48 51°16.786 2°52.77 -999 -999 -999 -999
2007-06-15 07:16:53 51°16.802 2°52.762 -999 -999 -999 -999
2007-06-15 07:16:58 51°16.817 2°52.754 -999 -999 -999 -999
2007-06-15 07:17:03 51°16.833 2°52.745 -999 -999 -999 -999
2007-06-15 07:17:08 51°16.848 2°52.736 -999 -999 -999 -999
2007-06-15 07:17:13 51°16.864 2°52.727 -999 -999 -999 -999
2007-06-15 07:17:18 51°16.88 2°52.717 -999 -999 -999 -999
2007-06-15 07:17:23 51°16.895 2°52.709 -999 -999 -999 -999
2007-06-15 07:17:28 51°16.911 2°52.699 -999 -999 -999 -999
2007-06-15 07:17:33 51°16.926 2°52.69 -999 -999 -999 -999
2007-06-15 07:17:38 51°16.942 2°52.681 -999 -999 -999 -999
2007-06-15 07:17:43 51°16.958 2°52.672 -999 -999 -999 -999
2007-06-15 07:17:48 51°16.974 2°52.663 -999 -999 -999 -999
2007-06-15 07:17:53 51°16.989 2°52.654 -999 -999 -999 -999
2007-06-15 07:17:58 51°17.005 2°52.645 -999 -999 -999 -999
2007-06-15 07:18:03 51°17.021 2°52.635 -999 -999 -999 -999
2007-06-15 07:18:08 51°17.037 2°52.627 -999 -999 -999 -999
2007-06-15 07:18:13 51°17.053 2°52.617 -999 -999 -999 -999
2007-06-15 07:18:18 51°17.069 2°52.61 -999 -999 -999 -999
2007-06-15 07:18:23 51°17.085 2°52.599 -999 -999 -999 -999
2007-06-15 07:18:28 51°17.1 2°52.592 -999 -999 -999 -999
2007-06-15 07:18:33 51°17.116 2°52.583 -999 -999 -999 -999
2007-06-15 07:18:38 51°17.132 2°52.576 -999 -999 -999 -999
2007-06-15 07:18:43 51°17.148 2°52.569 -999 -999 -999 -999
2007-06-15 07:18:48 51°17.164 2°52.562 -999 -999 -999 -999
2007-06-15 07:18:53 51°17.18 2°52.557 -999 -999 -999 -999
2007-06-15 07:18:58 51°17.196 2°52.55 -999 -999 -999 -999
2007-06-15 07:19:03 51°17.213 2°52.547 -999 -999 -999 -999
2007-06-15 07:19:08 51°17.229 2°52.543 -999 -999 -999 -999
2007-06-15 07:19:13 51°17.246 2°52.541 -999 -999 -999 -999
2007-06-15 07:19:18 51°17.262 2°52.539 -999 -999 -999 -999
2007-06-15 07:19:23 51°17.279 2°52.537 -999 -999 -999 -999
2007-06-15 07:19:28 51°17.295 2°52.536 -999 -999 -999 -999
2007-06-15 07:19:33 51°17.311 2°52.535 -999 -999 -999 -999
2007-06-15 07:19:38 51°17.328 2°52.533 -999 -999 -999 -999
2007-06-15 07:19:43 51°17.344 2°52.531 -999 -999 -999 -999
2007-06-15 07:19:48 51°17.36 2°52.529 -999 -999 -999 -999
2007-06-15 07:19:53 51°17.377 2°52.527 -999 -999 -999 -999
2007-06-15 07:19:58 51°17.393 2°52.524 -999 -999 -999 -999
2007-06-15 07:20:03 51°17.41 2°52.523 -999 -999 -999 -999
2007-06-15 07:20:08 51°17.426 2°52.52 -999 -999 -999 -999
2007-06-15 07:20:13 51°17.442 2°52.518 -999 -999 -999 -999
2007-06-15 07:20:18 51°17.459 2°52.515 -999 -999 -999 -999
2007-06-15 07:20:23 51°17.475 2°52.513 -999 -999 -999 -999
2007-06-15 07:20:28 51°17.492 2°52.51 -999 -999 -999 -999
2007-06-15 07:20:33 51°17.508 2°52.508 -999 -999 -999 -999
2007-06-15 07:20:38 51°17.525 2°52.506 -999 -999 -999 -999
2007-06-15 07:20:43 51°17.541 2°52.504 -999 -999 -999 -999
2007-06-15 07:20:48 51°17.557 2°52.502 -999 -999 -999 -999
2007-06-15 07:20:53 51°17.574 2°52.5 -999 -999 -999 -999
2007-06-15 07:20:58 51°17.59 2°52.498 -999 -999 -999 -999
2007-06-15 07:21:03 51°17.607 2°52.494 -999 -999 -999 -999
2007-06-15 07:21:08 51°17.623 2°52.492 -999 -999 -999 -999
2007-06-15 07:21:13 51°17.639 2°52.489 -999 -999 -999 -999
2007-06-15 07:21:18 51°17.656 2°52.487 -999 -999 -999 -999
2007-06-15 07:21:23 51°17.672 2°52.484 -999 -999 -999 -999
2007-06-15 07:21:28 51°17.688 2°52.482 -999 -999 -999 -999
2007-06-15 07:21:33 51°17.705 2°52.479 -999 -999 -999 -999
2007-06-15 07:21:38 51°17.721 2°52.478 -999 -999 -999 -999
2007-06-15 07:21:43 51°17.737 2°52.474 -999 -999 -999 -999
2007-06-15 07:21:48 51°17.754 2°52.472 -999 -999 -999 -999
2007-06-15 07:21:53 51°17.77 2°52.47 -999 -999 -999 -999
2007-06-15 07:21:58 51°17.787 2°52.467 -999 -999 -999 -999
2007-06-15 07:22:03 51°17.803 2°52.465 -999 -999 -999 -999
2007-06-15 07:22:08 51°17.819 2°52.462 -999 -999 -999 -999
2007-06-15 07:22:13 51°17.836 2°52.46 -999 -999 -999 -999
2007-06-15 07:22:18 51°17.852 2°52.458 -999 -999 -999 -999
2007-06-15 07:22:23 51°17.868 2°52.456 -999 -999 -999 -999
2007-06-15 07:22:28 51°17.885 2°52.453 -999 -999 -999 -999
2007-06-15 07:22:33 51°17.901 2°52.451 -999 -999 -999 -999
2007-06-15 07:22:38 51°17.918 2°52.448 -999 -999 -999 -999
2007-06-15 07:22:43 51°17.934 2°52.447 -999 -999 -999 -999
2007-06-15 07:22:48 51°17.95 2°52.446 -999 -999 -999 -999
2007-06-15 07:22:53 51°17.967 2°52.445 -999 -999 -999 -999
2007-06-15 07:22:58 51°17.983 2°52.444 -999 -999 -999 -999
2007-06-15 07:23:03 51°18 2°52.444 -999 -999 -999 -999
2007-06-15 07:23:08 51°18.016 2°52.444 -999 -999 -999 -999
2007-06-15 07:23:13 51°18.033 2°52.443 -999 -999 -999 -999
2007-06-15 07:23:18 51°18.049 2°52.443 -999 -999 -999 -999
2007-06-15 07:23:23 51°18.066 2°52.442 -999 -999 -999 -999
2007-06-15 07:23:28 51°18.082 2°52.442 -999 -999 -999 -999
2007-06-15 07:23:33 51°18.099 2°52.443 -999 -999 -999 -999
2007-06-15 07:23:38 51°18.115 2°52.447 -999 -999 -999 -999
2007-06-15 07:23:43 51°18.13 2°52.453 -999 -999 -999 -999
2007-06-15 07:23:48 51°18.146 2°52.461 -999 -999 -999 -999
2007-06-15 07:23:53 51°18.16 2°52.471 -999 -999 -999 -999
2007-06-15 07:23:58 51°18.174 2°52.482 -999 -999 -999 -999
2007-06-15 07:24:03 51°18.187 2°52.496 -999 -999 -999 -999
2007-06-15 07:24:08 51°18.2 2°52.511 -999 -999 -999 -999
2007-06-15 07:24:13 51°18.213 2°52.526 -999 -999 -999 -999
2007-06-15 07:24:18 51°18.225 2°52.543 -999 -999 -999 -999
2007-06-15 07:24:23 51°18.237 2°52.56 -999 -999 -999 -999
2007-06-15 07:24:28 51°18.249 2°52.577 -999 -999 -999 -999
2007-06-15 07:24:33 51°18.26 2°52.595 -999 -999 -999 -999
2007-06-15 07:24:38 51°18.272 2°52.613 -999 -999 -999 -999
2007-06-15 07:24:43 51°18.283 2°52.631 -999 -999 -999 -999
2007-06-15 07:24:48 51°18.295 2°52.649 -999 -999 -999 -999
2007-06-15 07:24:53 51°18.306 2°52.667 -999 -999 -999 -999
2007-06-15 07:24:58 51°18.319 2°52.684 -999 -999 -999 -999
2007-06-15 07:25:03 51°18.331 2°52.702 -999 -999 -999 -999
2007-06-15 07:25:08 51°18.343 2°52.719 -999 -999 -999 -999
2007-06-15 07:25:13 51°18.356 2°52.736 -999 -999 -999 -999
2007-06-15 07:25:18 51°18.368 2°52.753 -999 -999 -999 -999
2007-06-15 07:25:23 51°18.38 2°52.77 -999 -999 -999 -999
2007-06-15 07:25:28 51°18.392 2°52.787 -999 -999 -999 -999
2007-06-15 07:25:33 51°18.405 2°52.804 -999 -999 -999 -999
2007-06-15 07:25:38 51°18.418 2°52.819 -999 -999 -999 -999
2007-06-15 07:25:43 51°18.43 2°52.836 -999 -999 -999 -999
2007-06-15 07:25:48 51°18.443 2°52.851 -999 -999 -999 -999
2007-06-15 07:25:53 51°18.456 2°52.867 -999 -999 -999 -999
2007-06-15 07:25:58 51°18.469 2°52.883 -999 -999 -999 -999
2007-06-15 07:26:03 51°18.482 2°52.899 -999 -999 -999 -999
2007-06-15 07:26:08 51°18.495 2°52.914 -999 -999 -999 -999
2007-06-15 07:26:13 51°18.507 2°52.931 -999 -999 -999 -999
2007-06-15 07:26:18 51°18.519 2°52.947 -999 -999 -999 -999
2007-06-15 07:26:23 51°18.532 2°52.963 -999 -999 -999 -999
2007-06-15 07:26:28 51°18.545 2°52.978 -999 -999 -999 -999
2007-06-15 07:26:33 51°18.558 2°52.992 -999 -999 -999 -999
2007-06-15 07:26:38 51°18.572 2°53.006 -999 -999 -999 -999
2007-06-15 07:26:43 51°18.586 2°53.019 -999 -999 -999 -999
2007-06-15 07:26:48 51°18.6 2°53.032 -999 -999 -999 -999
2007-06-15 07:26:53 51°18.614 2°53.044 -999 -999 -999 -999
2007-06-15 07:26:58 51°18.628 2°53.057 -999 -999 -999 -999
2007-06-15 07:27:03 51°18.642 2°53.07 -999 -999 -999 -999
2007-06-15 07:27:08 51°18.655 2°53.084 -999 -999 -999 -999
2007-06-15 07:27:13 51°18.669 2°53.097 -999 -999 -999 -999
2007-06-15 07:27:18 51°18.683 2°53.111 -999 -999 -999 -999
2007-06-15 07:27:23 51°18.697 2°53.125 -999 -999 -999 -999
2007-06-15 07:27:28 51°18.71 2°53.139 -999 -999 -999 -999
2007-06-15 07:27:33 51°18.723 2°53.152 -999 -999 -999 -999
2007-06-15 07:27:38 51°18.737 2°53.167 -999 -999 -999 -999
2007-06-15 07:27:43 51°18.75 2°53.181 -999 -999 -999 -999
2007-06-15 07:27:48 51°18.764 2°53.195 -999 -999 -999 -999
2007-06-15 07:27:53 51°18.777 2°53.209 -999 -999 -999 -999
2007-06-15 07:27:58 51°18.791 2°53.222 -999 -999 -999 -999
2007-06-15 07:28:03 51°18.804 2°53.236 -999 -999 -999 -999
2007-06-15 07:28:08 51°18.818 2°53.25 -999 -999 -999 -999
2007-06-15 07:28:13 51°18.831 2°53.265 -999 -999 -999 -999
2007-06-15 07:28:18 51°18.844 2°53.278 -999 -999 -999 -999
2007-06-15 07:28:23 51°18.857 2°53.294 -999 -999 -999 -999
2007-06-15 07:28:28 51°18.871 2°53.307 -999 -999 -999 -999
2007-06-15 07:28:33 51°18.884 2°53.322 -999 -999 -999 -999
2007-06-15 07:28:38 51°18.898 2°53.335 -999 -999 -999 -999
2007-06-15 07:28:43 51°18.913 2°53.348 -999 -999 -999 -999
2007-06-15 07:28:48 51°18.927 2°53.361 -999 -999 -999 -999
2007-06-15 07:28:53 51°18.94 2°53.374 -999 -999 -999 -999
2007-06-15 07:28:58 51°18.954 2°53.388 -999 -999 -999 -999
2007-06-15 07:29:03 51°18.968 2°53.402 -999 -999 -999 -999
2007-06-15 07:29:08 51°18.981 2°53.416 -999 -999 -999 -999
2007-06-15 07:29:13 51°18.995 2°53.43 -999 -999 -999 -999
2007-06-15 07:29:18 51°19.008 2°53.443 -999 -999 -999 -999
2007-06-15 07:29:23 51°19.022 2°53.457 -999 -999 -999 -999
2007-06-15 07:29:28 51°19.036 2°53.47 -999 -999 -999 -999
2007-06-15 07:29:33 51°19.049 2°53.484 -999 -999 -999 -999
2007-06-15 07:29:38 51°19.063 2°53.497 -999 -999 -999 -999
2007-06-15 07:29:43 51°19.077 2°53.511 -999 -999 -999 -999
2007-06-15 07:29:48 51°19.09 2°53.524 -999 -999 -999 -999
2007-06-15 07:29:53 51°19.104 2°53.537 -999 -999 -999 -999
2007-06-15 07:29:58 51°19.118 2°53.55 -999 -999 -999 -999
2007-06-15 07:30:03 51°19.132 2°53.564 -999 -999 -999 -999
2007-06-15 07:30:08 51°19.146 2°53.577 -999 -999 -999 -999
2007-06-15 07:30:13 51°19.16 2°53.589 -999 -999 -999 -999
2007-06-15 07:30:18 51°19.174 2°53.601 -999 -999 -999 -999
2007-06-15 07:30:23 51°19.189 2°53.614 -999 -999 -999 -999
2007-06-15 07:30:28 51°19.203 2°53.625 -999 -999 -999 -999
2007-06-15 07:30:33 51°19.217 2°53.638 -999 -999 -999 -999
2007-06-15 07:30:38 51°19.232 2°53.649 -999 -999 -999 -999
2007-06-15 07:30:43 51°19.246 2°53.661 -999 -999 -999 -999
2007-06-15 07:30:48 51°19.261 2°53.672 -999 -999 -999 -999
2007-06-15 07:30:53 51°19.275 2°53.684 -999 -999 -999 -999
2007-06-15 07:30:58 51°19.289 2°53.696 -999 -999 -999 -999
2007-06-15 07:31:03 51°19.304 2°53.707 -999 -999 -999 -999
2007-06-15 07:31:08 51°19.318 2°53.718 -999 -999 -999 -999
2007-06-15 07:31:13 51°19.332 2°53.73 -999 -999 -999 -999
2007-06-15 07:31:18 51°19.347 2°53.742 -999 -999 -999 -999
2007-06-15 07:31:23 51°19.362 2°53.754 -999 -999 -999 -999
2007-06-15 07:31:28 51°19.376 2°53.765 -999 -999 -999 -999
2007-06-15 07:31:33 51°19.39 2°53.777 -999 -999 -999 -999
2007-06-15 07:31:38 51°19.405 2°53.789 -999 -999 -999 -999
2007-06-15 07:31:43 51°19.419 2°53.8 -999 -999 -999 -999
2007-06-15 07:31:48 51°19.434 2°53.812 -999 -999 -999 -999
2007-06-15 07:31:53 51°19.448 2°53.823 -999 -999 -999 -999
2007-06-15 07:31:58 51°19.462 2°53.835 -999 -999 -999 -999
2007-06-15 07:32:03 51°19.476 2°53.847 -999 -999 -999 -999
2007-06-15 07:32:08 51°19.491 2°53.859 -999 -999 -999 -999
2007-06-15 07:32:13 51°19.506 2°53.87 -999 -999 -999 -999
2007-06-15 07:32:18 51°19.52 2°53.883 -999 -999 -999 -999
2007-06-15 07:32:23 51°19.534 2°53.894 -999 -999 -999 -999
2007-06-15 07:32:28 51°19.548 2°53.906 -999 -999 -999 -999
2007-06-15 07:32:33 51°19.563 2°53.918 -999 -999 -999 -999
2007-06-15 07:32:38 51°19.577 2°53.93 -999 -999 -999 -999
2007-06-15 07:32:43 51°19.591 2°53.942 -999 -999 -999 -999
2007-06-15 07:32:48 51°19.606 2°53.954 -999 -999 -999 -999
2007-06-15 07:32:53 51°19.62 2°53.966 -999 -999 -999 -999
2007-06-15 07:32:58 51°19.635 2°53.978 -999 -999 -999 -999
2007-06-15 07:33:03 51°19.649 2°53.988 -999 -999 -999 -999
2007-06-15 07:33:08 51°19.663 2°54 -999 -999 -999 -999
2007-06-15 07:33:13 51°19.677 2°54.012 -999 -999 -999 -999
2007-06-15 07:33:18 51°19.691 2°54.024 -999 -999 -999 -999
2007-06-15 07:33:23 51°19.706 2°54.035 -999 -999 -999 -999
2007-06-15 07:33:28 51°19.72 2°54.047 -999 -999 -999 -999
2007-06-15 07:33:33 51°19.734 2°54.057 -999 -999 -999 -999
2007-06-15 07:33:38 51°19.749 2°54.069 -999 -999 -999 -999
2007-06-15 07:33:43 51°19.763 2°54.08 -999 -999 -999 -999
2007-06-15 07:33:48 51°19.777 2°54.091 -999 -999 -999 -999
2007-06-15 07:33:53 51°19.792 2°54.104 -999 -999 -999 -999
2007-06-15 07:33:58 51°19.806 2°54.115 -999 -999 -999 -999
2007-06-15 07:34:03 51°19.821 2°54.127 -999 -999 -999 -999
2007-06-15 07:34:08 51°19.836 2°54.138 -999 -999 -999 -999
2007-06-15 07:34:13 51°19.85 2°54.15 -999 -999 -999 -999
2007-06-15 07:34:18 51°19.865 2°54.161 -999 -999 -999 -999
2007-06-15 07:34:23 51°19.879 2°54.173 -999 -999 -999 -999
2007-06-15 07:34:28 51°19.894 2°54.184 -999 -999 -999 -999
2007-06-15 07:34:33 51°19.908 2°54.196 -999 -999 -999 -999
2007-06-15 07:34:38 51°19.923 2°54.207 -999 -999 -999 -999
2007-06-15 07:34:43 51°19.937 2°54.219 -999 -999 -999 -999
2007-06-15 07:34:48 51°19.951 2°54.23 -999 -999 -999 -999
2007-06-15 07:34:53 51°19.966 2°54.242 -999 -999 -999 -999
2007-06-15 07:34:58 51°19.98 2°54.254 -999 -999 -999 -999
2007-06-15 07:35:03 51°19.994 2°54.265 -999 -999 -999 -999
2007-06-15 07:35:08 51°20.008 2°54.277 -999 -999 -999 -999
2007-06-15 07:35:13 51°20.022 2°54.289 -999 -999 -999 -999
2007-06-15 07:35:18 51°20.036 2°54.301 -999 -999 -999 -999
2007-06-15 07:35:23 51°20.05 2°54.314 -999 -999 -999 -999
2007-06-15 07:35:28 51°20.065 2°54.326 -999 -999 -999 -999
2007-06-15 07:35:33 51°20.079 2°54.337 -999 -999 -999 -999
2007-06-15 07:35:38 51°20.094 2°54.35 -999 -999 -999 -999
2007-06-15 07:35:43 51°20.108 2°54.361 -999 -999 -999 -999
2007-06-15 07:35:48 51°20.122 2°54.374 -999 -999 -999 -999
2007-06-15 07:35:53 51°20.137 2°54.386 -999 -999 -999 -999
2007-06-15 07:35:58 51°20.152 2°54.398 -999 -999 -999 -999
2007-06-15 07:36:03 51°20.166 2°54.41 -999 -999 -999 -999
2007-06-15 07:36:08 51°20.181 2°54.421 -999 -999 -999 -999
2007-06-15 07:36:13 51°20.195 2°54.433 -999 -999 -999 -999
2007-06-15 07:36:18 51°20.209 2°54.445 -999 -999 -999 -999
2007-06-15 07:36:23 51°20.223 2°54.456 -999 -999 -999 -999
2007-06-15 07:36:28 51°20.236 2°54.467 -999 -999 -999 -999
2007-06-15 07:36:33 51°20.248 2°54.478 -999 -999 -999 -999
2007-06-15 07:36:38 51°20.26 2°54.488 -999 -999 -999 -999
2007-06-15 07:36:43 51°20.271 2°54.498 -999 -999 -999 -999
2007-06-15 07:36:48 51°20.282 2°54.507 -999 -999 -999 -999
2007-06-15 07:36:53 51°20.293 2°54.516 -999 -999 -999 -999
2007-06-15 07:36:58 51°20.303 2°54.525 -999 -999 -999 -999
2007-06-15 07:37:03 51°20.313 2°54.534 -999 -999 -999 -999
2007-06-15 07:37:08 51°20.323 2°54.543 -999 -999 -999 -999
2007-06-15 07:37:13 51°20.333 2°54.55 -999 -999 -999 -999
2007-06-15 07:37:18 51°20.343 2°54.558 -999 -999 -999 -999
2007-06-15 07:37:23 51°20.353 2°54.566 -999 -999 -999 -999
2007-06-15 07:37:28 51°20.362 2°54.573 -999 -999 -999 -999
2007-06-15 07:37:33 51°20.371 2°54.58 -999 -999 -999 -999
2007-06-15 07:37:38 51°20.379 2°54.587 -999 -999 -999 -999
2007-06-15 07:37:43 51°20.387 2°54.592 -999 -999 -999 -999
2007-06-15 07:37:48 51°20.395 2°54.597 -999 -999 -999 -999
2007-06-15 07:37:53 51°20.402 2°54.602 -999 -999 -999 -999
2007-06-15 07:37:58 51°20.409 2°54.606 -999 -999 -999 -999
2007-06-15 07:38:03 51°20.415 2°54.61 -999 -999 -999 -999
2007-06-15 07:38:08 51°20.421 2°54.613 -999 -999 -999 -999
2007-06-15 07:38:13 51°20.427 2°54.616 -999 -999 -999 -999
2007-06-15 07:38:18 51°20.432 2°54.618 -999 -999 -999 -999
2007-06-15 07:38:23 51°20.437 2°54.62 -999 -999 -999 -999
2007-06-15 07:38:28 51°20.442 2°54.621 -999 -999 -999 -999
2007-06-15 07:38:33 51°20.446 2°54.623 -999 -999 -999 -999
2007-06-15 07:38:38 51°20.451 2°54.623 -999 -999 -999 -999
2007-06-15 07:38:43 51°20.454 2°54.624 -999 -999 -999 -999
2007-06-15 07:38:48 51°20.458 2°54.624 -999 -999 -999 -999
2007-06-15 07:38:53 51°20.462 2°54.624 -999 -999 -999 -999
2007-06-15 07:38:58 51°20.465 2°54.623 -999 -999 -999 -999
2007-06-15 07:39:03 51°20.468 2°54.623 -999 -999 -999 -999
2007-06-15 07:39:08 51°20.471 2°54.622 -999 -999 -999 -999
2007-06-15 07:39:13 51°20.474 2°54.621 -999 -999 -999 -999
2007-06-15 07:39:18 51°20.476 2°54.62 -999 -999 -999 -999
2007-06-15 07:39:23 51°20.479 2°54.619 -999 -999 -999 -999
2007-06-15 07:39:28 51°20.481 2°54.617 -999 -999 -999 -999
2007-06-15 07:39:33 51°20.483 2°54.615 -999 -999 -999 -999
2007-06-15 07:39:38 51°20.485 2°54.614 -999 -999 -999 -999
2007-06-15 07:39:43 51°20.487 2°54.612 -999 -999 -999 -999
2007-06-15 07:39:48 51°20.489 2°54.61 -999 -999 -999 -999
2007-06-15 07:39:53 51°20.49 2°54.609 -999 -999 -999 -999
2007-06-15 07:39:58 51°20.492 2°54.607 -999 -999 -999 -999
2007-06-15 07:40:03 51°20.493 2°54.605 -999 -999 -999 -999
2007-06-15 07:40:08 51°20.495 2°54.603 -999 -999 -999 -999
2007-06-15 07:40:13 51°20.496 2°54.601 -999 -999 -999 -999
2007-06-15 07:40:18 51°20.497 2°54.599 -999 -999 -999 -999
2007-06-15 07:40:23 51°20.498 2°54.597 -999 -999 -999 -999
2007-06-15 07:40:28 51°20.499 2°54.595 -999 -999 -999 -999
2007-06-15 07:40:33 51°20.5 2°54.593 -999 -999 -999 -999
2007-06-15 07:40:38 51°20.501 2°54.591 -999 -999 -999 -999
2007-06-15 07:40:43 51°20.502 2°54.589 -999 -999 -999 -999
2007-06-15 07:40:48 51°20.503 2°54.587 -999 -999 -999 -999
2007-06-15 07:40:53 51°20.503 2°54.585 -999 -999 -999 -999
2007-06-15 07:40:58 51°20.504 2°54.584 -999 -999 -999 -999
2007-06-15 07:41:03 51°20.505 2°54.582 -999 -999 -999 -999
2007-06-15 07:41:08 51°20.505 2°54.58 -999 -999 -999 -999
2007-06-15 07:41:13 51°20.506 2°54.578 -999 -999 -999 -999
2007-06-15 07:41:18 51°20.506 2°54.576 -999 -999 -999 -999
2007-06-15 07:41:23 51°20.506 2°54.574 -999 -999 -999 -999
2007-06-15 07:41:28 51°20.507 2°54.572 -999 -999 -999 -999
2007-06-15 07:41:33 51°20.507 2°54.57 -999 -999 -999 -999
2007-06-15 07:41:38 51°20.507 2°54.569 -999 -999 -999 -999
2007-06-15 07:41:43 51°20.507 2°54.567 -999 -999 -999 -999
2007-06-15 07:41:48 51°20.507 2°54.565 -999 -999 -999 -999
2007-06-15 07:41:53 51°20.508 2°54.563 -999 -999 -999 -999
2007-06-15 07:41:58 51°20.508 2°54.561 -999 -999 -999 -999
2007-06-15 07:42:03 51°20.508 2°54.559 -999 -999 -999 -999
2007-06-15 07:42:08 51°20.508 2°54.557 -999 -999 -999 -999
2007-06-15 07:42:13 51°20.509 2°54.555 -999 -999 -999 -999
2007-06-15 07:42:18 51°20.51 2°54.552 -999 -999 -999 -999
2007-06-15 07:42:23 51°20.512 2°54.549 -999 -999 -999 -999
2007-06-15 07:42:28 51°20.513 2°54.546 -999 -999 -999 -999
2007-06-15 07:42:33 51°20.515 2°54.543 -999 -999 -999 -999
2007-06-15 07:42:38 51°20.518 2°54.54 -999 -999 -999 -999
2007-06-15 07:42:43 51°20.521 2°54.537 -999 -999 -999 -999
2007-06-15 07:42:48 51°20.524 2°54.535 -999 -999 -999 -999
2007-06-15 07:42:53 51°20.528 2°54.533 -999 -999 -999 -999
2007-06-15 07:42:58 51°20.532 2°54.532 -999 -999 -999 -999
2007-06-15 07:43:03 51°20.536 2°54.532 -999 -999 -999 -999
2007-06-15 07:43:08 51°20.54 2°54.533 -999 -999 -999 -999
2007-06-15 07:43:13 51°20.544 2°54.534 -999 -999 -999 -999
2007-06-15 07:43:18 51°20.547 2°54.538 -999 -999 -999 -999
2007-06-15 07:43:23 51°20.551 2°54.541 -999 -999 -999 -999
2007-06-15 07:43:28 51°20.554 2°54.546 -999 -999 -999 -999
2007-06-15 07:43:33 51°20.557 2°54.552 -999 -999 -999 -999
2007-06-15 07:43:38 51°20.559 2°54.559 -999 -999 -999 -999
2007-06-15 07:43:43 51°20.561 2°54.566 -999 -999 -999 -999
2007-06-15 07:43:48 51°20.563 2°54.574 -999 -999 -999 -999
2007-06-15 07:43:53 51°20.564 2°54.583 -999 -999 -999 -999
2007-06-15 07:43:58 51°20.565 2°54.592 -999 -999 -999 -999
2007-06-15 07:44:03 51°20.565 2°54.602 -999 -999 -999 -999
2007-06-15 07:44:08 51°20.565 2°54.611 -999 -999 -999 -999
2007-06-15 07:44:13 51°20.566 2°54.62 -999 -999 -999 -999
2007-06-15 07:44:18 51°20.565 2°54.63 -999 -999 -999 -999
2007-06-15 07:44:23 51°20.566 2°54.639 -999 -999 -999 -999
2007-06-15 07:44:28 51°20.565 2°54.648 -999 -999 -999 -999
2007-06-15 07:44:33 51°20.564 2°54.658 -999 -999 -999 -999
2007-06-15 07:44:38 51°20.564 2°54.667 -999 -999 -999 -999
2007-06-15 07:44:43 51°20.564 2°54.677 -999 -999 -999 -999
2007-06-15 07:44:48 51°20.562 2°54.687 -999 -999 -999 -999
2007-06-15 07:44:53 51°20.562 2°54.696 -999 -999 -999 -999
2007-06-15 07:44:58 51°20.561 2°54.705 -999 -999 -999 -999
2007-06-15 07:45:03 51°20.559 2°54.715 -999 -999 -999 -999
2007-06-15 07:45:08 51°20.559 2°54.725 -999 -999 -999 -999
2007-06-15 07:45:13 51°20.558 2°54.734 -999 -999 -999 -999
2007-06-15 07:45:18 51°20.557 2°54.743 -999 -999 -999 -999
2007-06-15 07:45:23 51°20.556 2°54.752 -999 -999 -999 -999
2007-06-15 07:45:28 51°20.554 2°54.76 -999 -999 -999 -999
2007-06-15 07:45:33 51°20.553 2°54.768 -999 -999 -999 -999
2007-06-15 07:45:38 51°20.551 2°54.776 -999 -999 -999 -999
2007-06-15 07:45:43 51°20.55 2°54.784 -999 -999 -999 -999
2007-06-15 07:45:48 51°20.549 2°54.791 -999 -999 -999 -999
2007-06-15 07:45:53 51°20.547 2°54.798 -999 -999 -999 -999
2007-06-15 07:45:58 51°20.545 2°54.805 -999 -999 -999 -999
2007-06-15 07:46:03 51°20.543 2°54.812 -999 -999 -999 -999
2007-06-15 07:46:08 51°20.541 2°54.818 -999 -999 -999 -999
2007-06-15 07:46:13 51°20.539 2°54.824 -999 -999 -999 -999
2007-06-15 07:46:18 51°20.537 2°54.83 -999 -999 -999 -999
2007-06-15 07:46:23 51°20.535 2°54.836 -999 -999 -999 -999
2007-06-15 07:46:28 51°20.533 2°54.841 -999 -999 -999 -999
2007-06-15 07:46:33 51°20.53 2°54.846 -999 -999 -999 -999
2007-06-15 07:46:38 51°20.528 2°54.852 -999 -999 -999 -999
2007-06-15 07:46:43 51°20.526 2°54.856 -999 -999 -999 -999
2007-06-15 07:46:48 51°20.523 2°54.861 -999 -999 -999 -999
2007-06-15 07:46:53 51°20.52 2°54.865 -999 -999 -999 -999
2007-06-15 07:46:58 51°20.518 2°54.87 -999 -999 -999 -999
2007-06-15 07:47:03 51°20.516 2°54.874 -999 -999 -999 -999
2007-06-15 07:47:08 51°20.513 2°54.878 -999 -999 -999 -999
2007-06-15 07:47:13 51°20.511 2°54.882 -999 -999 -999 -999
2007-06-15 07:47:18 51°20.508 2°54.885 -999 -999 -999 -999
2007-06-15 07:47:23 51°20.505 2°54.889 -999 -999 -999 -999
2007-06-15 07:47:28 51°20.503 2°54.893 -999 -999 -999 -999
2007-06-15 07:47:33 51°20.5 2°54.896 -999 -999 -999 -999
2007-06-15 07:47:38 51°20.498 2°54.9 -999 -999 -999 -999
2007-06-15 07:47:43 51°20.495 2°54.903 -999 -999 -999 -999
2007-06-15 07:47:48 51°20.492 2°54.907 -999 -999 -999 -999
2007-06-15 07:47:53 51°20.49 2°54.911 -999 -999 -999 -999
2007-06-15 07:47:58 51°20.487 2°54.915 -999 -999 -999 -999
2007-06-15 07:48:03 51°20.485 2°54.919 -999 -999 -999 -999
2007-06-15 07:48:08 51°20.483 2°54.924 -999 -999 -999 -999
2007-06-15 07:48:13 51°20.481 2°54.929 -999 -999 -999 -999
2007-06-15 07:48:18 51°20.479 2°54.933 -999 -999 -999 -999
2007-06-15 07:48:23 51°20.478 2°54.938 -999 -999 -999 -999
2007-06-15 07:48:28 51°20.477 2°54.944 -999 -999 -999 -999
2007-06-15 07:48:33 51°20.476 2°54.949 -999 -999 -999 -999
2007-06-15 07:48:38 51°20.475 2°54.954 -999 -999 -999 -999
2007-06-15 07:48:43 51°20.475 2°54.96 -999 -999 -999 -999
2007-06-15 07:48:48 51°20.475 2°54.966 -999 -999 -999 -999
2007-06-15 07:48:53 51°20.476 2°54.971 -999 -999 -999 -999
2007-06-15 07:48:58 51°20.477 2°54.976 -999 -999 -999 -999
2007-06-15 07:49:03 51°20.479 2°54.98 -999 -999 -999 -999
2007-06-15 07:49:08 51°20.481 2°54.985 -999 -999 -999 -999
2007-06-15 07:49:13 51°20.484 2°54.988 -999 -999 -999 -999
2007-06-15 07:49:18 51°20.487 2°54.992 -999 -999 -999 -999
2007-06-15 07:49:23 51°20.49 2°54.995 -999 -999 -999 -999
2007-06-15 07:49:28 51°20.493 2°54.999 -999 -999 -999 -999
2007-06-15 07:49:33 51°20.497 2°55.002 -999 -999 -999 -999
2007-06-15 07:49:38 51°20.501 2°55.005 -999 -999 -999 -999
2007-06-15 07:49:43 51°20.505 2°55.008 -999 -999 -999 -999
2007-06-15 07:49:48 51°20.509 2°55.011 -999 -999 -999 -999
2007-06-15 07:49:53 51°20.514 2°55.014 -999 -999 -999 -999
2007-06-15 07:49:58 51°20.518 2°55.017 -999 -999 -999 -999
2007-06-15 07:50:03 51°20.523 2°55.02 -999 -999 -999 -999
2007-06-15 07:50:08 51°20.527 2°55.024 -999 -999 -999 -999
2007-06-15 07:50:13 51°20.532 2°55.027 -999 -999 -999 -999
2007-06-15 07:50:18 51°20.537 2°55.031 -999 -999 -999 -999
2007-06-15 07:50:23 51°20.542 2°55.034 -999 -999 -999 -999
2007-06-15 07:50:28 51°20.546 2°55.038 -999 -999 -999 -999
2007-06-15 07:50:33 51°20.551 2°55.041 -999 -999 -999 -999
2007-06-15 07:50:38 51°20.555 2°55.046 -999 -999 -999 -999
2007-06-15 07:50:43 51°20.559 2°55.05 -999 -999 -999 -999
2007-06-15 07:50:48 51°20.563 2°55.055 -999 -999 -999 -999
2007-06-15 07:50:53 51°20.567 2°55.06 -999 -999 -999 -999
2007-06-15 07:50:58 51°20.571 2°55.065 -999 -999 -999 -999
2007-06-15 07:51:03 51°20.574 2°55.07 -999 -999 -999 -999
2007-06-15 07:51:08 51°20.578 2°55.076 -999 -999 -999 -999
2007-06-15 07:51:13 51°20.581 2°55.081 -999 -999 -999 -999
2007-06-15 07:51:18 51°20.584 2°55.087 -999 -999 -999 -999
2007-06-15 07:51:23 51°20.587 2°55.093 -999 -999 -999 -999
2007-06-15 07:51:28 51°20.589 2°55.099 -999 -999 -999 -999
2007-06-15 07:51:33 51°20.592 2°55.106 -999 -999 -999 -999
2007-06-15 07:51:38 51°20.595 2°55.112 -999 -999 -999 -999
2007-06-15 07:51:43 51°20.597 2°55.119 -999 -999 -999 -999
2007-06-15 07:51:48 51°20.6 2°55.125 -999 -999 -999 -999
2007-06-15 07:51:53 51°20.602 2°55.132 -999 -999 -999 -999
2007-06-15 07:51:58 51°20.605 2°55.138 -999 -999 -999 -999
2007-06-15 07:52:03 51°20.608 2°55.143 -999 -999 -999 -999
2007-06-15 07:52:08 51°20.611 2°55.149 -999 -999 -999 -999
2007-06-15 07:52:13 51°20.614 2°55.154 -999 -999 -999 -999
2007-06-15 07:52:18 51°20.618 2°55.159 -999 -999 -999 -999
2007-06-15 07:52:23 51°20.621 2°55.164 -999 -999 -999 -999
2007-06-15 07:52:28 51°20.624 2°55.168 -999 -999 -999 -999
2007-06-15 07:52:33 51°20.628 2°55.172 -999 -999 -999 -999
2007-06-15 07:52:38 51°20.631 2°55.177 -999 -999 -999 -999
2007-06-15 07:52:43 51°20.635 2°55.181 -999 -999 -999 -999
2007-06-15 07:52:48 51°20.638 2°55.186 -999 -999 -999 -999
2007-06-15 07:52:53 51°20.642 2°55.191 -999 -999 -999 -999
2007-06-15 07:52:58 51°20.645 2°55.195 -999 -999 -999 -999
2007-06-15 07:53:03 51°20.649 2°55.2 -999 -999 -999 -999
2007-06-15 07:53:08 51°20.652 2°55.204 -999 -999 -999 -999
2007-06-15 07:53:13 51°20.655 2°55.21 -999 -999 -999 -999
2007-06-15 07:53:18 51°20.659 2°55.215 -999 -999 -999 -999
2007-06-15 07:53:23 51°20.662 2°55.22 -999 -999 -999 -999
2007-06-15 07:53:28 51°20.665 2°55.225 -999 -999 -999 -999
2007-06-15 07:53:33 51°20.668 2°55.231 -999 -999 -999 -999
2007-06-15 07:53:38 51°20.671 2°55.237 -999 -999 -999 -999
2007-06-15 07:53:43 51°20.673 2°55.242 -999 -999 -999 -999
2007-06-15 07:53:48 51°20.676 2°55.249 -999 -999 -999 -999
2007-06-15 07:53:53 51°20.679 2°55.255 -999 -999 -999 -999
2007-06-15 07:53:58 51°20.681 2°55.261 -999 -999 -999 -999
2007-06-15 07:54:03 51°20.684 2°55.267 -999 -999 -999 -999
2007-06-15 07:54:08 51°20.686 2°55.273 -999 -999 -999 -999
2007-06-15 07:54:13 51°20.689 2°55.279 -999 -999 -999 -999
2007-06-15 07:54:18 51°20.691 2°55.285 -999 -999 -999 -999
2007-06-15 07:54:23 51°20.694 2°55.292 -999 -999 -999 -999
2007-06-15 07:54:28 51°20.697 2°55.298 -999 -999 -999 -999
2007-06-15 07:54:33 51°20.699 2°55.304 -999 -999 -999 -999
2007-06-15 07:54:38 51°20.701 2°55.311 -999 -999 -999 -999
2007-06-15 07:54:43 51°20.704 2°55.317 -999 -999 -999 -999
2007-06-15 07:54:48 51°20.706 2°55.324 -999 -999 -999 -999
2007-06-15 07:54:53 51°20.709 2°55.33 -999 -999 -999 -999
2007-06-15 07:54:58 51°20.711 2°55.337 -999 -999 -999 -999
2007-06-15 07:55:03 51°20.713 2°55.343 -999 -999 -999 -999
2007-06-15 07:55:08 51°20.716 2°55.35 -999 -999 -999 -999
2007-06-15 07:55:13 51°20.718 2°55.356 -999 -999 -999 -999
2007-06-15 07:55:18 51°20.721 2°55.362 -999 -999 -999 -999
2007-06-15 07:55:23 51°20.723 2°55.369 -999 -999 -999 -999
2007-06-15 07:55:28 51°20.725 2°55.376 -999 -999 -999 -999
2007-06-15 07:55:33 51°20.728 2°55.382 -999 -999 -999 -999
2007-06-15 07:55:38 51°20.731 2°55.388 -999 -999 -999 -999
2007-06-15 07:55:43 51°20.734 2°55.394 -999 -999 -999 -999
2007-06-15 07:55:48 51°20.736 2°55.401 -999 -999 -999 -999
2007-06-15 07:55:53 51°20.739 2°55.407 -999 -999 -999 -999
2007-06-15 07:55:58 51°20.742 2°55.413 -999 -999 -999 -999
2007-06-15 07:56:03 51°20.745 2°55.418 -999 -999 -999 -999
2007-06-15 07:56:08 51°20.747 2°55.425 -999 -999 -999 -999
2007-06-15 07:56:13 51°20.75 2°55.43 -999 -999 -999 -999
2007-06-15 07:56:18 51°20.753 2°55.436 -999 -999 -999 -999
2007-06-15 07:56:23 51°20.756 2°55.441 -999 -999 -999 -999
2007-06-15 07:56:28 51°20.76 2°55.447 -999 -999 -999 -999
2007-06-15 07:56:33 51°20.763 2°55.452 -999 -999 -999 -999
2007-06-15 07:56:38 51°20.766 2°55.458 -999 -999 -999 -999
2007-06-15 07:56:43 51°20.769 2°55.463 -999 -999 -999 -999
2007-06-15 07:56:48 51°20.772 2°55.468 -999 -999 -999 -999
2007-06-15 07:56:53 51°20.775 2°55.473 -999 -999 -999 -999
2007-06-15 07:56:58 51°20.778 2°55.479 -999 -999 -999 -999
2007-06-15 07:57:03 51°20.781 2°55.484 -999 -999 -999 -999
2007-06-15 07:57:08 51°20.784 2°55.49 -999 -999 -999 -999
2007-06-15 07:57:13 51°20.787 2°55.496 -999 -999 -999 -999
2007-06-15 07:57:18 51°20.79 2°55.501 -999 -999 -999 -999
2007-06-15 07:57:23 51°20.793 2°55.507 -999 -999 -999 -999
2007-06-15 07:57:28 51°20.795 2°55.514 -999 -999 -999 -999
2007-06-15 07:57:33 51°20.798 2°55.52 -999 -999 -999 -999
2007-06-15 07:57:38 51°20.801 2°55.526 -999 -999 -999 -999
2007-06-15 07:57:43 51°20.803 2°55.533 -999 -999 -999 -999
2007-06-15 07:57:48 51°20.805 2°55.54 -999 -999 -999 -999
2007-06-15 07:57:53 51°20.807 2°55.547 -999 -999 -999 -999
2007-06-15 07:57:58 51°20.808 2°55.554 -999 -999 -999 -999
2007-06-15 07:58:03 51°20.81 2°55.561 -999 -999 -999 -999
2007-06-15 07:58:08 51°20.811 2°55.569 -999 -999 -999 -999
2007-06-15 07:58:13 51°20.813 2°55.576 -999 -999 -999 -999
2007-06-15 07:58:18 51°20.814 2°55.583 -999 -999 -999 -999
2007-06-15 07:58:23 51°20.815 2°55.591 -999 -999 -999 -999
2007-06-15 07:58:28 51°20.817 2°55.598 -999 -999 -999 -999
2007-06-15 07:58:33 51°20.818 2°55.606 -999 -999 -999 -999
2007-06-15 07:58:38 51°20.819 2°55.614 -999 -999 -999 -999
2007-06-15 07:58:43 51°20.82 2°55.621 -999 -999 -999 -999
2007-06-15 07:58:48 51°20.821 2°55.629 -999 -999 -999 -999
2007-06-15 07:58:53 51°20.823 2°55.636 -999 -999 -999 -999
2007-06-15 07:58:58 51°20.824 2°55.643 -999 -999 -999 -999
2007-06-15 07:59:03 51°20.826 2°55.65 -999 -999 -999 -999
2007-06-15 07:59:08 51°20.827 2°55.658 -999 -999 -999 -999
2007-06-15 07:59:13 51°20.828 2°55.665 -999 -999 -999 -999
2007-06-15 07:59:18 51°20.83 2°55.672 -999 -999 -999 -999
2007-06-15 07:59:23 51°20.832 2°55.679 -999 -999 -999 -999
2007-06-15 07:59:28 51°20.834 2°55.686 -999 -999 -999 -999
2007-06-15 07:59:33 51°20.835 2°55.692 -999 -999 -999 -999
2007-06-15 07:59:38 51°20.837 2°55.699 -999 -999 -999 -999
2007-06-15 07:59:43 51°20.839 2°55.706 -999 -999 -999 -999
2007-06-15 07:59:48 51°20.841 2°55.712 -999 -999 -999 -999
2007-06-15 07:59:53 51°20.844 2°55.718 -999 -999 -999 -999
2007-06-15 07:59:58 51°20.846 2°55.724 -999 -999 -999 -999
2007-06-15 08:00:03 51°20.848 2°55.73 -999 -999 -999 -999
2007-06-15 08:00:08 51°20.851 2°55.736 -999 -999 -999 -999
2007-06-15 08:00:13 51°20.853 2°55.741 -999 -999 -999 -999
2007-06-15 08:00:18 51°20.856 2°55.747 -999 -999 -999 -999
2007-06-15 08:00:23 51°20.859 2°55.752 -999 -999 -999 -999
2007-06-15 08:00:28 51°20.861 2°55.757 -999 -999 -999 -999
2007-06-15 08:00:33 51°20.864 2°55.762 -999 -999 -999 -999
2007-06-15 08:00:38 51°20.867 2°55.767 -999 -999 -999 -999
2007-06-15 08:00:43 51°20.87 2°55.772 -999 -999 -999 -999
2007-06-15 08:00:48 51°20.873 2°55.776 -999 -999 -999 -999
2007-06-15 08:00:53 51°20.876 2°55.782 -999 -999 -999 -999
2007-06-15 08:00:58 51°20.879 2°55.786 -999 -999 -999 -999
2007-06-15 08:01:03 51°20.882 2°55.791 -999 -999 -999 -999
2007-06-15 08:01:08 51°20.884 2°55.797 -999 -999 -999 -999
2007-06-15 08:01:13 51°20.886 2°55.803 -999 -999 -999 -999
2007-06-15 08:01:18 51°20.889 2°55.808 -999 -999 -999 -999
2007-06-15 08:01:23 51°20.891 2°55.814 -999 -999 -999 -999
2007-06-15 08:01:28 51°20.893 2°55.82 -999 -999 -999 -999
2007-06-15 08:01:33 51°20.895 2°55.826 -999 -999 -999 -999
2007-06-15 08:01:38 51°20.897 2°55.832 -999 -999 -999 -999
2007-06-15 08:01:43 51°20.899 2°55.838 -999 -999 -999 -999
2007-06-15 08:01:48 51°20.901 2°55.845 -999 -999 -999 -999
2007-06-15 08:01:53 51°20.904 2°55.851 -999 -999 -999 -999
2007-06-15 08:01:58 51°20.905 2°55.856 -999 -999 -999 -999
2007-06-15 08:02:03 51°20.908 2°55.862 -999 -999 -999 -999
2007-06-15 08:02:08 51°20.91 2°55.868 -999 -999 -999 -999
2007-06-15 08:02:13 51°20.912 2°55.874 -999 -999 -999 -999
2007-06-15 08:02:18 51°20.914 2°55.88 -999 -999 -999 -999
2007-06-15 08:02:23 51°20.916 2°55.886 -999 -999 -999 -999
2007-06-15 08:02:28 51°20.918 2°55.892 -999 -999 -999 -999
2007-06-15 08:02:33 51°20.921 2°55.897 -999 -999 -999 -999
2007-06-15 08:02:38 51°20.923 2°55.903 -999 -999 -999 -999
2007-06-15 08:02:43 51°20.925 2°55.909 -999 -999 -999 -999
2007-06-15 08:02:48 51°20.928 2°55.915 -999 -999 -999 -999
2007-06-15 08:02:53 51°20.93 2°55.921 -999 -999 -999 -999
2007-06-15 08:02:58 51°20.932 2°55.927 -999 -999 -999 -999
2007-06-15 08:03:03 51°20.934 2°55.933 -999 -999 -999 -999
2007-06-15 08:03:08 51°20.936 2°55.939 -999 -999 -999 -999
2007-06-15 08:03:13 51°20.939 2°55.944 -999 -999 -999 -999
2007-06-15 08:03:18 51°20.941 2°55.951 -999 -999 -999 -999
2007-06-15 08:03:23 51°20.943 2°55.957 -999 -999 -999 -999
2007-06-15 08:03:28 51°20.945 2°55.963 -999 -999 -999 -999
2007-06-15 08:03:33 51°20.947 2°55.969 -999 -999 -999 -999
2007-06-15 08:03:38 51°20.949 2°55.975 -999 -999 -999 -999
2007-06-15 08:03:43 51°20.952 2°55.981 -999 -999 -999 -999
2007-06-15 08:03:48 51°20.954 2°55.987 -999 -999 -999 -999
2007-06-15 08:03:53 51°20.956 2°55.993 -999 -999 -999 -999
2007-06-15 08:03:58 51°20.959 2°55.999 -999 -999 -999 -999
2007-06-15 08:04:03 51°20.961 2°56.005 -999 -999 -999 -999
2007-06-15 08:04:08 51°20.963 2°56.011 -999 -999 -999 -999
2007-06-15 08:04:13 51°20.965 2°56.017 -999 -999 -999 -999
2007-06-15 08:04:18 51°20.967 2°56.023 -999 -999 -999 -999
2007-06-15 08:04:23 51°20.97 2°56.029 -999 -999 -999 -999
2007-06-15 08:04:28 51°20.972 2°56.035 -999 -999 -999 -999
2007-06-15 08:04:33 51°20.974 2°56.042 -999 -999 -999 -999
2007-06-15 08:04:38 51°20.976 2°56.048 -999 -999 -999 -999
2007-06-15 08:04:43 51°20.978 2°56.054 -999 -999 -999 -999
2007-06-15 08:04:48 51°20.981 2°56.06 -999 -999 -999 -999
2007-06-15 08:04:53 51°20.983 2°56.066 -999 -999 -999 -999
2007-06-15 08:04:58 51°20.985 2°56.073 -999 -999 -999 -999
2007-06-15 08:05:03 51°20.987 2°56.079 -999 -999 -999 -999
2007-06-15 08:05:08 51°20.989 2°56.085 -999 -999 -999 -999
2007-06-15 08:05:13 51°20.991 2°56.091 -999 -999 -999 -999
2007-06-15 08:05:18 51°20.993 2°56.098 -999 -999 -999 -999
2007-06-15 08:05:23 51°20.995 2°56.104 -999 -999 -999 -999
2007-06-15 08:05:28 51°20.997 2°56.111 -999 -999 -999 -999
2007-06-15 08:05:33 51°20.999 2°56.117 -999 -999 -999 -999
2007-06-15 08:05:38 51°21 2°56.123 -999 -999 -999 -999
2007-06-15 08:05:43 51°21.003 2°56.13 -999 -999 -999 -999
2007-06-15 08:05:48 51°21.004 2°56.136 -999 -999 -999 -999
2007-06-15 08:05:53 51°21.006 2°56.143 -999 -999 -999 -999
2007-06-15 08:05:58 51°21.008 2°56.149 -999 -999 -999 -999
2007-06-15 08:06:03 51°21.01 2°56.156 -999 -999 -999 -999
2007-06-15 08:06:08 51°21.012 2°56.162 -999 -999 -999 -999
2007-06-15 08:06:13 51°21.014 2°56.168 -999 -999 -999 -999
2007-06-15 08:06:18 51°21.016 2°56.174 -999 -999 -999 -999
2007-06-15 08:06:23 51°21.018 2°56.18 -999 -999 -999 -999
2007-06-15 08:06:28 51°21.02 2°56.186 -999 -999 -999 -999
2007-06-15 08:06:33 51°21.023 2°56.193 -999 -999 -999 -999
2007-06-15 08:06:38 51°21.025 2°56.199 -999 -999 -999 -999
2007-06-15 08:06:43 51°21.027 2°56.205 -999 -999 -999 -999
2007-06-15 08:06:48 51°21.029 2°56.211 -999 -999 -999 -999
2007-06-15 08:06:53 51°21.032 2°56.216 -999 -999 -999 -999
2007-06-15 08:06:58 51°21.034 2°56.222 -999 -999 -999 -999
2007-06-15 08:07:03 51°21.036 2°56.228 -999 -999 -999 -999
2007-06-15 08:07:08 51°21.039 2°56.234 -999 -999 -999 -999
2007-06-15 08:07:13 51°21.041 2°56.239 -999 -999 -999 -999
2007-06-15 08:07:18 51°21.043 2°56.245 -999 -999 -999 -999
2007-06-15 08:07:23 51°21.046 2°56.251 -999 -999 -999 -999
2007-06-15 08:07:28 51°21.049 2°56.256 -999 -999 -999 -999
2007-06-15 08:07:33 51°21.051 2°56.262 -999 -999 -999 -999
2007-06-15 08:07:38 51°21.054 2°56.268 -999 -999 -999 -999
2007-06-15 08:07:43 51°21.056 2°56.274 -999 -999 -999 -999
2007-06-15 08:07:48 51°21.059 2°56.279 -999 -999 -999 -999
2007-06-15 08:07:53 51°21.061 2°56.285 -999 -999 -999 -999
2007-06-15 08:07:58 51°21.063 2°56.291 -999 -999 -999 -999
2007-06-15 08:08:03 51°21.066 2°56.297 -999 -999 -999 -999
2007-06-15 08:08:08 51°21.068 2°56.303 -999 -999 -999 -999
2007-06-15 08:08:13 51°21.071 2°56.308 -999 -999 -999 -999
2007-06-15 08:08:18 51°21.073 2°56.314 -999 -999 -999 -999
2007-06-15 08:08:23 51°21.075 2°56.321 -999 -999 -999 -999
2007-06-15 08:08:28 51°21.078 2°56.326 -999 -999 -999 -999
2007-06-15 08:08:33 51°21.081 2°56.332 -999 -999 -999 -999
2007-06-15 08:08:38 51°21.083 2°56.338 -999 -999 -999 -999
2007-06-15 08:08:43 51°21.085 2°56.345 -999 -999 -999 -999
2007-06-15 08:08:48 51°21.087 2°56.351 -999 -999 -999 -999
2007-06-15 08:08:53 51°21.089 2°56.357 -999 -999 -999 -999
2007-06-15 08:08:58 51°21.091 2°56.363 -999 -999 -999 -999
2007-06-15 08:09:03 51°21.093 2°56.369 -999 -999 -999 -999
2007-06-15 08:09:08 51°21.095 2°56.376 -999 -999 -999 -999
2007-06-15 08:09:13 51°21.097 2°56.382 -999 -999 -999 -999
2007-06-15 08:09:18 51°21.099 2°56.388 -999 -999 -999 -999
2007-06-15 08:09:23 51°21.101 2°56.394 -999 -999 -999 -999
2007-06-15 08:09:28 51°21.103 2°56.401 -999 -999 -999 -999
2007-06-15 08:09:33 51°21.105 2°56.407 -999 -999 -999 -999
2007-06-15 08:09:38 51°21.107 2°56.413 -999 -999 -999 -999
2007-06-15 08:09:43 51°21.109 2°56.419 -999 -999 -999 -999
2007-06-15 08:09:48 51°21.112 2°56.426 -999 -999 -999 -999
2007-06-15 08:09:53 51°21.114 2°56.432 -999 -999 -999 -999
2007-06-15 08:09:58 51°21.116 2°56.437 -999 -999 -999 -999
2007-06-15 08:10:03 51°21.118 2°56.444 -999 -999 -999 -999
2007-06-15 08:10:08 51°21.12 2°56.449 -999 -999 -999 -999
2007-06-15 08:10:13 51°21.122 2°56.455 -999 -999 -999 -999
2007-06-15 08:10:18 51°21.125 2°56.461 -999 -999 -999 -999
2007-06-15 08:10:23 51°21.127 2°56.467 -999 -999 -999 -999
2007-06-15 08:10:28 51°21.13 2°56.472 -999 -999 -999 -999
2007-06-15 08:10:33 51°21.132 2°56.478 -999 -999 -999 -999
2007-06-15 08:10:38 51°21.135 2°56.483 -999 -999 -999 -999
2007-06-15 08:10:43 51°21.137 2°56.489 -999 -999 -999 -999
2007-06-15 08:10:48 51°21.14 2°56.495 -999 -999 -999 -999
2007-06-15 08:10:53 51°21.142 2°56.5 -999 -999 -999 -999
2007-06-15 08:10:58 51°21.144 2°56.506 -999 -999 -999 -999
2007-06-15 08:11:03 51°21.147 2°56.511 -999 -999 -999 -999
2007-06-15 08:11:08 51°21.15 2°56.517 -999 -999 -999 -999
2007-06-15 08:11:13 51°21.152 2°56.523 -999 -999 -999 -999
2007-06-15 08:11:18 51°21.155 2°56.528 -999 -999 -999 -999
2007-06-15 08:11:23 51°21.157 2°56.534 -999 -999 -999 -999
2007-06-15 08:11:28 51°21.159 2°56.539 -999 -999 -999 -999
2007-06-15 08:11:33 51°21.162 2°56.544 -999 -999 -999 -999
2007-06-15 08:11:38 51°21.165 2°56.549 -999 -999 -999 -999
2007-06-15 08:11:43 51°21.168 2°56.554 -999 -999 -999 -999
2007-06-15 08:11:48 51°21.17 2°56.56 -999 -999 -999 -999
2007-06-15 08:11:53 51°21.173 2°56.564 -999 -999 -999 -999
2007-06-15 08:11:58 51°21.176 2°56.57 -999 -999 -999 -999
2007-06-15 08:12:03 51°21.179 2°56.575 -999 -999 -999 -999
2007-06-15 08:12:08 51°21.182 2°56.579 -999 -999 -999 -999
2007-06-15 08:12:13 51°21.185 2°56.584 -999 -999 -999 -999
2007-06-15 08:12:18 51°21.188 2°56.589 -999 -999 -999 -999
2007-06-15 08:12:23 51°21.191 2°56.594 -999 -999 -999 -999
2007-06-15 08:12:28 51°21.194 2°56.599 -999 -999 -999 -999
2007-06-15 08:12:33 51°21.196 2°56.604 -999 -999 -999 -999
2007-06-15 08:12:38 51°21.199 2°56.609 -999 -999 -999 -999
2007-06-15 08:12:43 51°21.202 2°56.614 -999 -999 -999 -999
2007-06-15 08:12:48 51°21.204 2°56.619 -999 -999 -999 -999
2007-06-15 08:12:53 51°21.207 2°56.624 -999 -999 -999 -999
2007-06-15 08:12:58 51°21.209 2°56.629 -999 -999 -999 -999
2007-06-15 08:13:03 51°21.212 2°56.635 -999 -999 -999 -999
2007-06-15 08:13:08 51°21.214 2°56.64 -999 -999 -999 -999
2007-06-15 08:13:13 51°21.217 2°56.645 -999 -999 -999 -999
2007-06-15 08:13:18 51°21.219 2°56.651 -999 -999 -999 -999
2007-06-15 08:13:23 51°21.221 2°56.657 -999 -999 -999 -999
2007-06-15 08:13:28 51°21.223 2°56.663 -999 -999 -999 -999
2007-06-15 08:13:33 51°21.225 2°56.669 -999 -999 -999 -999
2007-06-15 08:13:38 51°21.226 2°56.675 -999 -999 -999 -999
2007-06-15 08:13:43 51°21.228 2°56.682 -999 -999 -999 -999
2007-06-15 08:13:48 51°21.229 2°56.688 -999 -999 -999 -999
2007-06-15 08:13:53 51°21.23 2°56.695 -999 -999 -999 -999
2007-06-15 08:13:58 51°21.231 2°56.702 -999 -999 -999 -999
2007-06-15 08:14:03 51°21.232 2°56.708 -999 -999 -999 -999
2007-06-15 08:14:08 51°21.233 2°56.715 -999 -999 -999 -999
2007-06-15 08:14:13 51°21.234 2°56.722 -999 -999 -999 -999
2007-06-15 08:14:18 51°21.235 2°56.729 -999 -999 -999 -999
2007-06-15 08:14:23 51°21.236 2°56.735 -999 -999 -999 -999
2007-06-15 08:14:28 51°21.237 2°56.742 -999 -999 -999 -999
2007-06-15 08:14:33 51°21.238 2°56.749 -999 -999 -999 -999
2007-06-15 08:14:38 51°21.239 2°56.756 -999 -999 -999 -999
2007-06-15 08:14:43 51°21.24 2°56.762 -999 -999 -999 -999
2007-06-15 08:14:48 51°21.241 2°56.769 -999 -999 -999 -999